Theta_e
296 298 300 301 301 301 300 301 301 301 300 300 300 300 301 302 303 303 303 303 303 303 303 303 302 302 304 308 310 311 312 312 311 310 310 309 308 308 307 307 306 306 305 305 304 304 304 304 304 304 305 305 305 305 305 305 305 305 305 305 305 305 306 306 306 306 306 307 306 306 306 305 305 305 304 304 304 303 303 302 302 302 301 301 301 302
293 295 296 298 299 300 300 300 301 301 300 300 299 300 300 301 302 302 302 302 302 302 303 302 301 301 301 305 308 311 311 312 311 310 309 309 308 308 307 306 306 305 305 305 304 304 304 304 304 304 305 305 305 305 305 305 305 305 305 305 305 305 306 306 306 307 307 306 306 306 306 305 305 305 304 304 304 303 303 303 302 302 301 302 302 303
293 294 294 296 297 298 299 299 299 300 300 299 299 299 300 300 300 301 300 301 301 301 301 301 300 299 299 302 306 309 311 311 311 310 309 309 308 307 307 306 306 305 305 304 304 304 304 304 304 304 304 305 305 305 305 305 305 305 305 305 305 305 305 306 306 306 307 307 306 306 305 305 305 305 304 304 304 303 303 303 302 302 302 302 303 303
293 294 294 295 296 297 298 297 298 299 299 299 299 299 299 299 300 300 299 299 299 299 298 298 298 298 298 299 303 307 309 310 310 310 309 308 308 307 307 306 306 305 305 305 304 304 304 304 304 304 304 304 305 305 305 305 305 304 304 304 305 305 305 305 306 306 306 306 306 306 305 305 305 304 304 304 303 303 303 303 302 302 302 303 303 304
294 295 295 295 295 296 296 297 297 297 298 297 297 297 297 298 299 299 298 297 297 297 296 295 295 296 297 297 300 304 307 309 309 309 308 308 307 307 306 306 306 305 305 305 304 304 304 304 304 304 304 304 304 304 305 305 305 304 304 304 305 305 305 305 305 306 306 306 306 305 305 304 304 304 303 303 303 303 303 302 302 302 302 303 303 304
294 295 296 295 295 295 295 296 296 296 296 295 295 296 296 297 297 297 296 294 294 294 294 293 293 293 295 295 298 302 306 307 308 308 308 307 307 306 306 306 305 305 305 305 304 304 304 304 304 304 304 304 304 304 304 304 304 304 304 304 305 305 305 305 305 305 305 305 305 304 304 303 303 302 302 302 302 302 302 302 302 302 303 303 303 303
293 294 294 294 294 294 294 294 295 296 295 294 294 294 295 295 295 295 294 293 293 292 292 292 291 291 292 294 297 301 303 305 306 307 307 307 306 306 305 305 305 305 305 305 304 304 304 304 304 304 304 304 304 304 304 304 304 304 304 304 304 304 304 305 305 305 305 305 304 303 303 302 302 301 301 301 301 301 301 301 302 302 302 302 303 304
292 292 292 293 293 292 293 293 294 295 295 294 294 293 293 294 294 293 292 291 291 291 291 290 290 290 290 291 294 298 300 301 303 304 305 305 306 305 305 305 305 305 305 304 304 304 304 304 304 304 304 304 304 304 304 304 304 304 303 303 303 304 304 304 304 304 304 304 303 303 302 301 301 301 300 300 300 300 301 301 301 302 302 302 303 303
292 292 291 293 293 293 292 292 293 294 295 295 294 293 293 293 293 292 291 290 290 290 290 290 290 290 289 288 290 293 297 298 299 299 301 301 301 302 303 304 304 304 304 304 304 304 304 304 304 304 304 304 304 304 304 304 303 303 303 303 303 303 303 303 303 303 303 303 302 302 302 301 301 301 300 300 300 300 300 301 301 301 301 302 302 302
293 292 292 293 293 294 293 292 292 293 294 294 294 294 294 293 292 292 291 291 290 289 289 290 291 291 289 288 288 290 293 296 298 299 301 300 300 301 302 303 303 303 303 303 304 304 304 304 304 304 304 304 304 304 303 304 303 303 303 302 302 302 302 302 303 303 303 302 302 302 301 301 301 300 300 300 300 300 300 300 300 301 301 301 301 302
292 292 292 292 292 293 293 291 291 291 293 293 293 293 293 293 293 292 291 291 290 289 289 290 291 291 291 289 288 288 290 292 294 297 300 300 301 301 301 302 302 302 303 303 303 303 303 304 304 304 304 304 304 304 304 303 303 303 302 302 302 302 301 302 302 302 302 302 302 302 301 301 300 300 300 300 300 300 300 300 300 300 300 300 301 301
292 292 292 292 292 291 290 289 288 289 291 292 292 291 291 292 293 293 292 291 291 291 290 289 290 290 291 290 289 288 288 289 290 292 293 295 298 299 299 299 300 301 301 302 302 303 303 303 304 304 304 304 303 304 303 303 303 302 302 302 302 301 301 301 301 301 301 301 301 301 301 301 300 300 300 300 300 300 300 300 299 299 300 299 300 300
292 292 292 292 291 291 291 289 288 289 291 291 291 291 291 292 293 293 293 292 292 292 291 290 290 289 289 289 290 289 288 289 289 289 290 291 293 294 295 295 296 296 297 298 298 300 302 303 303 303 303 303 303 303 303 303 303 302 302 302 301 301 301 301 301 301 301 301 301 301 301 300 300 300 300 300 300 300 300 299 299 299 299 299 299 299
291 291 291 291 291 291 291 290 290 290 291 291 292 292 293 293 292 292 292 292 291 291 290 290 290 289 289 288 289 289 289 288 288 288 288 289 291 292 293 293 294 293 293 294 294 296 300 301 301 301 303 303 303 303 303 303 303 303 302 302 301 301 301 300 301 301 301 301 301 301 301 300 300 300 300 300 300 299 299 299 299 299 299 299 299 299
292 291 290 290 291 291 292 291 291 291 292 292 293 293 293 292 292 291 291 291 290 288 288 288 288 289 290 290 288 288 289 289 288 288 288 288 289 290 291 292 292 292 292 293 293 295 298 298 298 298 300 301 301 302 302 302 303 303 302 302 302 301 301 301 300 300 300 300 300 300 300 300 300 300 300 299 299 299 299 299 299 299 299 299 298 299
293 292 291 291 291 292 292 292 292 292 292 293 293 293 292 291 291 291 291 291 289 287 287 286 287 288 290 290 288 288 288 289 289 288 288 288 288 288 289 291 291 291 291 292 292 293 294 295 295 295 296 299 300 301 302 302 303 303 302 302 302 301 301 301 300 300 300 300 300 300 300 300 300 300 299 299 299 299 299 298 298 298 298 298 298 298
293 293 292 292 292 292 293 293 293 293 293 293 293 293 292 292 291 291 291 291 289 288 287 287 287 287 289 288 288 288 289 289 289 288 288 289 288 287 288 290 290 290 291 291 292 292 292 292 293 294 295 298 300 301 302 302 303 303 302 302 301 301 301 301 300 300 300 300 300 300 300 300 300 299 299 299 298 298 298 298 298 298 298 298 298 298
294 293 293 293 293 293 293 293 293 293 293 292 292 292 293 292 292 291 291 291 290 289 288 288 288 289 289 289 288 287 288 289 289 288 288 288 287 286 286 288 290 290 290 290 291 291 291 291 292 292 294 297 299 300 301 302 302 303 302 302 302 301 301 301 300 300 300 300 300 300 300 299 299 299 299 298 298 298 298 298 298 298 298 298 298 298
294 294 294 293 294 294 294 293 293 293 293 293 292 292 292 291 291 290 290 290 290 289 288 288 288 289 289 289 287 286 288 289 289 288 287 288 287 286 285 287 289 289 289 290 290 290 289 290 291 294 296 297 298 300 301 301 302 302 302 302 302 301 301 300 300 300 300 300 300 299 299 299 299 298 298 298 298 298 298 297 297 297 297 297 297 297
294 294 294 294 294 294 293 293 293 293 293 293 293 292 291 291 290 290 289 290 290 289 289 288 288 289 290 288 286 284 287 288 288 288 287 287 287 285 284 286 288 288 288 289 289 289 288 288 289 292 295 296 298 299 300 301 301 302 302 302 302 301 301 301 300 300 300 300 299 299 299 299 298 298 298 298 298 297 297 297 297 297 297 297 297 297
294 294 295 295 295 294 293 294 294 294 294 294 293 292 291 290 290 290 290 289 289 289 289 288 289 289 291 289 286 284 287 288 288 287 287 287 286 284 283 286 286 287 287 288 288 287 287 287 288 289 293 295 297 298 299 300 301 301 302 301 301 301 301 301 300 300 300 300 299 299 299 299 298 298 298 297 297 297 297 297 297 297 297 297 297 297
294 295 295 296 295 295 295 295 295 295 295 294 293 292 291 291 290 290 290 290 289 289 289 289 290 290 290 288 286 285 287 288 288 287 287 286 285 285 282 285 286 286 286 287 286 284 284 286 287 289 292 294 296 297 298 299 300 301 301 301 301 301 300 300 300 300 299 299 299 299 299 298 298 298 298 297 297 297 297 296 296 296 296 296 296 296
296 295 296 296 295 295 295 294 295 295 296 295 294 293 292 291 291 291 291 290 290 290 290 290 290 288 285 284 283 284 287 288 289 288 286 285 285 285 282 285 285 285 286 286 285 283 283 285 286 288 291 294 296 297 297 298 299 300 301 301 300 300 300 300 300 299 299 299 299 298 298 298 298 298 297 297 297 296 296 296 296 296 296 296 296 296
296 296 296 295 295 294 294 293 293 293 295 294 294 293 293 292 292 292 292 291 290 290 289 288 287 285 284 284 284 284 286 288 288 288 286 286 285 284 282 284 285 285 286 285 284 282 282 284 285 286 289 292 295 296 297 298 299 299 300 300 300 300 300 299 299 299 299 298 298 298 298 298 298 297 297 297 296 296 296 296 296 296 296 296 295 295
296 296 295 295 295 295 295 293 293 293 294 293 293 293 292 292 291 291 289 289 289 288 287 286 285 285 284 285 284 284 285 287 287 287 286 285 284 282 281 284 285 285 285 284 282 282 283 283 284 285 286 289 293 296 297 297 298 299 299 299 299 299 299 299 298 298 298 298 298 298 298 297 297 297 297 296 296 296 296 296 295 295 295 295 295 295
298 297 296 296 296 297 298 297 296 296 296 294 293 292 291 291 289 288 286 286 286 286 285 285 285 285 285 284 284 284 284 285 286 287 286 285 283 282 280 283 284 285 285 282 282 282 283 283 283 283 283 286 290 294 296 297 297 298 298 298 298 298 298 298 298 298 298 298 298 297 297 297 297 297 296 296 296 296 295 295 295 295 295 295 294 294
301 300 300 299 299 299 299 299 299 298 298 297 295 293 292 290 288 286 285 285 286 286 285 285 285 285 285 284 284 284 283 285 286 286 286 285 283 282 281 282 284 284 283 282 281 282 284 284 284 284 283 284 287 291 295 296 297 297 297 298 297 297 297 297 297 297 298 298 297 297 297 297 297 296 296 296 295 295 295 295 295 295 295 294 294 293
301 301 301 300 300 299 299 299 299 299 299 299 298 296 293 290 287 286 286 287 287 286 285 285 285 285 285 285 284 283 283 285 286 286 286 285 283 282 281 282 283 283 282 281 281 283 285 285 284 283 283 283 285 288 292 295 296 297 297 297 297 297 297 297 297 297 298 297 297 297 297 296 296 296 296 295 295 295 295 295 295 295 294 293 292 291
299 300 301 300 300 300 299 299 299 299 299 299 299 297 294 290 288 287 288 288 287 286 285 285 285 285 285 284 283 282 282 284 286 287 286 284 283 282 280 282 283 283 282 281 281 282 283 283 281 280 281 284 285 286 288 292 294 295 296 296 297 297 297 297 297 297 297 297 297 297 296 296 296 295 295 295 295 295 295 294 294 294 293 292 291 289
297 298 298 299 299 299 299 297 297 298 299 299 299 297 295 291 290 289 289 289 287 286 285 285 285 285 284 283 281 281 281 284 286 287 286 285 283 281 281 282 282 283 283 282 281 280 281 281 280 279 279 283 285 285 285 288 290 292 293 294 295 296 297 297 297 297 297 297 296 296 296 296 295 295 295 295 295 294 294 294 294 293 292 290 288 286
294 295 296 297 297 297 296 295 295 295 297 298 298 297 295 292 291 290 290 289 288 286 286 285 286 285 285 283 282 281 282 284 286 288 287 285 284 283 282 282 282 282 284 283 282 281 279 281 281 280 279 281 283 284 284 286 287 287 288 290 292 294 297 297 297 297 297 296 296 296 296 295 295 295 295 294 294 294 294 294 294 293 291 288 286 285
292 293 294 295 295 294 294 293 292 292 293 295 295 296 295 293 291 290 290 289 289 287 287 286 286 286 285 284 284 283 283 284 287 288 287 286 284 283 283 283 282 282 283 283 282 281 280 280 280 280 279 280 281 282 284 285 285 284 286 287 288 290 295 296 296 296 296 296 296 296 295 295 295 295 294 294 294 294 294 294 294 293 290 287 286 285
292 292 293 293 293 293 292 291 290 290 291 292 292 293 293 293 292 291 290 290 289 288 287 287 286 286 286 285 284 284 282 283 287 289 289 286 284 283 282 283 282 282 282 282 280 279 278 278 278 278 278 279 280 281 283 284 284 284 285 287 286 287 291 294 294 294 294 294 294 295 295 295 294 294 294 294 294 294 294 294 294 293 291 287 285 285
291 292 292 292 292 292 291 290 289 290 290 290 291 292 292 292 292 291 290 290 289 289 288 288 287 286 286 285 284 284 282 282 286 290 290 287 285 283 282 283 283 283 283 282 280 277 275 275 276 277 278 279 280 281 281 282 283 284 283 286 286 286 286 289 290 289 290 290 290 289 291 291 292 293 293 293 293 293 293 293 293 293 293 288 285 284
291 291 291 291 291 291 291 290 289 289 290 290 291 291 291 291 291 290 290 290 289 289 288 288 288 287 287 286 285 284 283 282 286 290 290 287 285 284 283 283 283 283 283 283 281 279 276 275 276 277 277 279 280 280 280 279 280 281 281 284 285 285 284 285 286 287 287 286 285 284 283 283 285 287 290 291 292 293 293 293 293 293 293 291 288 285
290 290 291 291 291 291 291 290 290 290 290 290 290 291 291 291 290 290 290 290 289 289 289 288 288 287 287 287 286 285 284 284 286 290 291 288 286 285 284 284 284 284 284 284 283 281 278 277 277 278 279 279 280 280 280 279 279 280 281 283 283 283 282 283 283 284 284 283 282 281 280 280 281 283 285 289 292 292 293 293 293 293 293 292 291 289
290 290 290 290 290 290 290 290 290 290 290 290 290 290 290 290 290 290 289 289 289 289 289 289 288 287 287 285 284 284 284 285 287 289 290 288 287 285 284 284 285 285 285 284 284 283 281 279 278 279 279 279 279 279 279 280 280 280 280 281 282 282 281 281 282 283 282 283 282 281 280 280 281 282 284 289 290 291 292 292 292 292 292 292 291 291
289 290 290 290 290 290 290 290 290 290 290 290 289 289 289 288 288 288 288 287 287 287 287 287 287 287 287 286 284 283 283 285 287 288 289 288 287 286 285 284 285 286 286 285 285 284 283 282 280 280 278 277 278 280 280 281 281 281 281 280 280 279 279 280 280 281 281 282 283 283 283 282 282 282 283 285 285 285 285 285 287 289 290 290 290 291
289 289 289 290 290 290 290 290 290 290 290 290 289 288 287 287 286 286 285 285 285 285 285 285 285 285 285 285 285 285 285 286 286 288 288 288 287 286 286 285 285 286 286 286 285 285 284 284 283 282 281 278 278 278 279 281 282 282 280 280 280 279 279 279 279 280 281 281 283 284 283 281 280 279 279 279 281 281 281 281 282 284 284 283 284 287
289 289 289 290 290 290 290 290 290 290 289 289 288 288 287 286 285 284 284 285 284 284 283 284 284 284 285 286 286 286 286 286 287 288 288 287 287 287 287 286 286 286 286 285 285 285 285 284 284 284 283 280 279 278 278 279 281 282 282 281 281 281 280 279 278 278 279 279 281 282 281 278 277 278 278 278 278 279 279 279 279 281 282 280 279 279
289 289 289 290 290 290 290 290 289 289 289 288 287 287 287 287 286 285 285 285 285 285 285 285 285 284 284 283 283 283 285 286 287 288 288 287 287 287 287 286 286 286 286 285 285 285 285 285 284 284 282 280 280 279 279 279 281 283 284 283 281 280 280 280 279 277 278 278 279 280 281 279 278 278 278 279 278 278 279 278 277 277 280 278 277 276
290 290 290 289 289 289 288 288 288 288 288 287 287 287 287 287 287 287 286 285 285 284 285 285 285 284 284 283 283 283 283 285 286 287 287 287 287 287 287 287 287 286 286 285 285 285 286 286 285 284 282 281 280 279 278 279 282 284 285 283 282 281 281 280 277 276 276 277 277 278 282 280 278 278 278 278 277 277 278 277 278 279 280 277 275 275
291 290 289 288 288 288 288 288 288 288 288 287 287 287 287 287 288 288 287 286 285 285 285 285 285 285 284 283 283 283 283 283 284 286 288 287 287 287 288 287 287 287 286 286 285 284 285 286 285 283 283 282 282 281 280 280 281 282 284 284 283 281 279 278 276 274 274 276 276 276 278 278 278 277 277 278 277 276 276 279 281 283 284 278 275 274
290 289 288 288 288 288 288 289 288 288 288 287 287 287 287 287 288 288 287 286 286 286 286 285 285 284 284 284 284 283 283 282 283 284 287 288 288 288 288 287 287 287 287 286 285 284 284 284 284 283 282 282 282 281 281 281 281 281 282 283 283 282 281 280 277 275 274 275 275 275 274 275 275 274 275 276 275 275 275 275 276 277 281 279 277 275
289 289 289 289 289 289 289 289 288 288 288 288 287 287 287 287 287 288 287 286 286 286 285 285 285 284 284 284 284 284 283 282 283 284 285 287 288 289 288 287 287 287 287 287 286 286 285 284 283 282 281 282 281 281 281 281 281 281 282 283 283 281 280 279 278 277 276 275 274 273 272 273 273 274 274 274 274 274 274 274 274 275 276 276 276 275
290 290 290 289 289 289 289 289 289 289 288 288 288 288 287 287 287 287 287 286 286 285 285 285 285 284 284 284 284 284 283 283 283 283 284 284 286 287 287 287 287 287 287 286 286 286 286 285 284 283 282 281 281 281 281 281 281 281 281 282 282 281 279 278 277 277 277 277 275 273 272 272 274 275 276 276 275 274 273 274 274 275 274 274 274 275
290 289 289 289 289 289 289 289 289 288 288 288 288 288 288 287 287 287 287 287 286 286 286 285 285 284 284 284 284 285 284 284 283 284 284 284 284 284 285 285 286 287 286 286 285 285 286 285 285 284 283 282 281 281 281 281 282 281 281 282 281 281 279 278 277 277 276 278 276 274 272 273 274 276 276 276 275 274 273 273 274 274 275 275 274 274
290 290 289 289 289 288 289 289 288 288 288 288 288 288 288 288 288 287 287 287 287 287 287 286 285 285 285 285 285 286 286 285 285 285 285 285 284 284 284 284 285 286 286 286 286 286 285 285 284 284 284 283 282 282 281 281 282 282 282 282 281 281 280 280 278 277 276 277 277 275 275 276 276 276 276 275 275 274 274 274 274 274 274 275 275 274
290 290 289 289 288 288 288 288 288 288 288 288 288 288 288 289 289 288 288 287 287 287 287 286 285 285 285 285 286 286 286 286 286 285 285 285 285 284 284 284 284 284 284 285 285 284 284 285 285 285 285 284 284 283 282 282 282 282 282 282 281 281 281 280 279 278 278 277 277 276 277 278 278 277 277 276 275 275 275 275 274 274 274 274 274 275
290 290 289 289 288 288 288 288 288 288 288 288 288 288 288 288 288 288 288 288 287 287 287 286 286 285 285 285 285 286 286 286 286 285 285 286 285 285 284 284 284 284 283 283 283 283 283 283 284 285 287 286 285 284 282 282 282 281 281 281 281 281 281 280 280 279 279 279 278 277 276 277 278 278 278 277 276 275 275 275 276 275 274 273 273 274
290 289 289 289 288 288 288 288 288 288 288 288 288 288 287 288 288 288 288 288 287 287 287 287 286 285 285 285 285 286 286 286 285 285 285 286 285 285 284 284 284 283 283 282 282 282 282 281 281 282 284 287 287 286 284 283 282 281 281 281 281 281 281 280 280 280 280 280 279 278 276 277 277 278 278 277 276 276 276 276 276 275 274 272 272 273
Wind_Speed
1 2 4 7 8 8 8 10 10 9 7 7 7 7 6 7 7 7 8 7 7 6 6 5 5 5 6 7 8 9 11 13 15 17 18 18 18 18 18 17 16 16 15 15 15 14 14 14 14 14 14 14 15 15 15 15 15 15 15 15 16 16 16 16 16 15 15 14 13 13 12 11 11 10 10 9 9 9 8 8 7 7 7 7 8 8
1 1 2 5 6 7 6 9 9 9 8 7 7 6 7 7 7 6 6 7 7 7 7 6 5 5 6 7 9 11 12 14 16 18 19 19 19 18 18 17 17 16 16 16 15 15 14 14 14 14 14 14 15 15 15 15 15 15 15 16 16 16 16 16 16 15 15 14 14 13 12 12 11 10 10 10 9 9 9 8 8 8 8 8 8 9
1 1 2 3 4 4 4 6 7 7 7 6 6 6 7 8 7 6 6 6 7 7 7 6 6 6 7 8 10 12 13 15 16 18 18 19 19 18 18 18 17 17 16 16 16 15 15 15 14 14 14 14 14 15 15 15 15 15 15 16 16 16 16 16 16 15 15 14 14 13 12 12 11 11 10 10 9 9 9 9 8 8 8 9 9 9
2 2 2 2 2 2 3 3 4 4 4 4 4 5 6 6 6 5 5 6 6 6 6 6 6 6 6 7 9 12 14 15 16 17 17 18 18 18 18 18 17 17 17 16 16 16 15 15 15 15 14 14 14 14 14 14 15 15 15 15 15 15 15 15 15 14 14 13 13 13 12 11 11 10 10 10 9 9 9 9 9 9 9 9 10 10
2 2 3 2 2 2 1 2 2 2 2 2 3 4 5 5 4 4 4 5 6 6 6 6 6 6 6 6 8 11 14 14 15 16 16 17 17 17 17 17 17 17 17 17 16 16 16 15 15 15 15 15 15 15 14 14 14 14 14 14 14 14 14 14 14 13 13 12 12 12 11 11 10 10 10 10 9 9 9 9 9 9 9 10 10 10
1 1 2 2 2 2 1 2 2 2 2 2 2 3 3 3 3 3 3 4 5 5 5 5 5 5 5 6 7 10 12 13 14 14 15 16 16 17 17 17 17 17 17 17 17 16 16 16 16 15 15 15 15 15 15 15 14 14 14 14 14 13 13 13 13 13 12 11 11 10 10 10 10 10 10 9 9 9 9 10 10 10 10 10 10 10
1 1 2 1 1 1 1 1 2 3 2 2 2 2 2 2 3 3 3 4 4 4 4 4 3 3 4 5 7 9 10 12 13 13 14 15 16 16 16 17 17 17 17 17 17 17 16 16 16 16 16 16 16 16 16 15 15 15 14 14 13 13 13 13 13 12 11 11 10 10 10 10 10 10 10 9 9 9 10 10 10 10 10 10 11 11
1 1 1 1 1 1 1 1 2 3 3 3 3 3 2 2 2 2 2 2 3 3 4 3 3 2 3 3 5 6 7 8 9 10 11 13 14 15 15 16 16 17 17 17 17 17 17 17 17 16 16 17 17 17 17 16 16 16 15 15 14 13 13 13 13 12 12 11 11 11 11 10 10 10 10 10 10 10 10 10 10 11 11 11 11 11
3 2 2 2 2 2 1 1 1 2 3 3 3 3 3 3 3 2 1 1 2 2 3 4 4 3 3 3 3 4 5 5 5 6 7 8 9 11 13 15 16 16 17 17 17 17 17 17 17 17 17 17 17 17 17 17 17 16 16 15 15 14 14 13 13 13 12 12 12 12 12 11 11 11 10 10 10 10 10 11 11 11 11 11 11 11
3 3 3 2 2 2 2 2 2 2 3 3 3 3 3 4 4 3 3 2 2 2 2 4 5 5 4 3 2 3 4 5 6 7 7 7 7 8 10 11 13 14 16 17 17 17 17 17 17 17 17 18 18 18 18 17 17 17 16 16 15 15 15 14 14 14 13 13 13 13 13 12 12 12 11 11 11 11 11 11 11 11 11 11 11 11
3 3 3 3 2 2 1 1 1 2 2 2 2 2 2 3 4 5 5 5 4 3 3 4 5 5 5 4 3 3 3 4 5 6 8 8 9 9 10 10 11 12 15 16 16 17 17 17 17 18 18 18 18 18 18 17 17 17 16 16 16 16 15 15 15 15 14 14 14 14 14 13 13 12 12 12 11 11 11 11 11 11 11 11 11 11
3 3 3 3 2 2 1 1 1 1 2 3 2 2 3 3 4 5 6 6 5 5 4 4 4 4 4 4 4 3 3 3 4 4 4 5 6 7 8 8 9 10 12 13 15 16 17 17 18 18 17 17 18 18 17 17 16 17 17 17 17 17 16 16 16 15 15 15 15 15 14 14 13 13 12 12 12 12 12 12 11 11 11 11 11 12
3 3 3 3 3 3 3 2 2 2 3 4 4 5 5 4 4 4 4 5 5 5 4 4 4 3 3 3 3 4 4 4 4 3 3 3 4 4 4 5 5 6 6 7 8 10 14 16 16 17 17 16 17 17 18 17 17 17 17 17 17 17 17 16 16 16 16 16 15 15 15 14 14 13 13 12 12 12 12 12 12 12 12 12 12 12
3 3 3 3 4 4 4 4 4 4 5 5 5 5 4 4 3 3 3 4 3 2 3 3 3 3 3 2 2 3 4 4 3 3 3 4 4 4 4 4 4 4 4 4 4 6 9 11 11 12 15 15 16 16 17 17 17 18 18 18 18 18 17 17 17 16 16 16 16 15 15 15 14 13 13 13 12 12 12 12 12 12 12 12 12 12
4 4 4 4 4 4 4 5 5 5 5 5 4 4 3 3 4 4 4 4 3 2 2 2 2 3 3 3 3 3 4 4 4 4 4 5 4 4 4 4 4 4 4 4 5 6 7 7 7 7 10 12 13 14 15 16 17 19 19 19 18 18 17 17 17 17 16 16 16 16 15 15 14 13 13 13 12 12 12 12 12 12 12 12 12 12
4 4 5 5 5 5 4 5 5 5 5 4 4 4 4 4 5 5 5 4 3 2 2 2 2 2 3 3 3 4 4 4 4 5 5 5 4 4 4 4 4 5 5 5 5 5 5 5 5 6 7 10 13 14 15 16 17 19 19 19 18 18 17 17 17 17 16 16 16 15 15 14 14 13 13 13 13 12 12 12 12 12 13 13 13 13
4 4 4 5 5 4 4 4 5 5 4 4 4 4 5 5 5 5 5 4 3 3 3 3 3 3 2 2 3 4 6 5 5 5 5 5 4 4 4 5 5 6 5 6 6 5 5 5 5 5 6 9 12 14 15 16 17 18 19 19 18 18 17 17 17 17 16 16 16 15 15 14 14 13 13 13 13 13 12 12 13 13 13 13 13 13
4 5 4 5 5 4 4 4 4 4 4 4 5 5 5 4 4 4 5 4 4 4 4 4 3 3 2 2 2 4 6 6 6 5 5 5 4 3 4 4 5 6 6 6 6 5 5 6 6 6 7 11 13 14 15 16 17 18 19 18 18 18 17 17 17 17 16 16 16 15 15 14 14 13 13 13 13 13 13 13 13 13 13 13 13 13
5 5 5 5 5 4 4 5 5 6 6 6 5 5 5 5 4 4 4 4 4 5 5 4 4 3 3 2 2 3 6 7 6 5 5 5 4 3 3 4 5 6 6 7 6 6 5 5 7 9 11 13 14 15 16 16 17 18 18 18 18 17 17 17 17 16 16 16 15 15 14 14 14 13 13 13 13 13 13 13 13 13 13 13 13 13
5 5 5 5 4 4 5 6 6 7 7 7 6 6 5 5 5 5 5 5 5 4 4 4 4 4 4 3 2 3 5 6 6 5 6 5 4 3 4 4 5 6 7 7 6 5 5 4 6 8 12 14 15 16 17 17 17 18 18 18 17 17 17 17 16 16 16 15 15 15 14 14 14 13 13 13 13 13 13 13 13 13 13 13 13 13
6 6 6 5 4 4 5 5 6 7 7 7 6 5 5 5 5 5 5 5 5 5 4 5 6 6 5 4 3 4 6 7 6 5 4 4 3 3 3 4 5 6 7 7 5 4 4 4 4 6 10 14 16 17 18 18 18 18 18 17 17 17 16 16 16 16 15 15 15 15 14 14 14 13 13 13 13 13 13 13 13 13 13 13 13 13
6 6 6 6 5 5 5 5 6 7 8 7 6 6 5 6 6 6 6 6 6 7 7 7 6 5 4 3 3 4 6 7 7 6 3 3 4 3 3 4 4 5 7 6 4 3 4 4 4 6 9 13 16 17 18 18 18 18 17 17 17 17 16 16 16 15 15 15 15 15 14 14 14 14 13 13 13 13 13 13 13 13 13 13 13 13
6 6 5 6 6 5 5 4 5 6 7 8 7 6 5 6 7 7 7 7 7 7 7 5 3 1 2 2 2 3 5 6 5 5 4 3 3 3 3 3 4 5 7 6 4 3 3 4 4 6 8 14 17 18 18 18 18 18 17 17 17 16 16 16 15 15 15 15 15 15 14 14 14 14 13 13 13 13 13 13 13 13 13 13 13 13
7 6 5 5 5 4 4 4 4 5 6 6 6 6 5 5 5 5 5 5 5 4 3 2 1 1 1 2 2 3 4 5 4 4 4 3 3 2 2 4 5 6 7 5 3 3 3 4 4 5 6 12 16 18 18 18 18 18 17 17 17 16 16 16 15 15 15 15 15 15 14 14 14 14 13 13 13 13 13 13 13 13 13 13 13 13
7 6 5 5 5 5 5 4 5 5 6 6 6 6 5 5 4 3 2 2 2 2 2 2 2 2 2 2 2 2 3 4 4 4 3 3 2 2 2 4 5 6 6 3 2 3 3 3 4 4 4 8 13 17 18 18 18 18 17 17 17 16 16 16 15 15 15 15 15 15 14 14 14 14 13 13 13 13 13 13 14 13 13 13 13 13
8 8 7 7 7 8 9 8 8 8 9 8 7 6 5 5 4 3 2 2 3 3 3 3 4 4 3 3 3 3 3 3 4 4 4 3 3 2 2 3 4 5 4 2 2 2 3 3 3 3 4 6 10 15 17 18 18 18 17 17 17 16 16 16 15 15 15 15 15 15 14 14 14 13 13 13 13 13 14 13 13 13 13 13 13 13
13 12 12 12 12 11 11 11 11 12 13 12 10 9 7 6 5 4 4 4 4 5 5 5 5 4 4 3 3 3 3 4 4 4 4 3 3 3 2 3 4 4 3 1 1 2 3 3 3 4 4 5 7 10 15 17 17 17 17 17 16 16 16 16 15 15 15 15 15 14 14 14 14 13 13 13 14 14 14 13 13 13 13 12 11 10
15 14 14 14 14 14 13 13 13 14 15 15 15 14 10 7 6 7 6 6 5 5 5 5 5 5 4 5 4 3 3 4 5 5 4 3 3 3 2 3 4 4 3 1 1 0 2 2 3 3 4 4 5 7 11 15 16 16 17 17 16 16 16 16 15 15 15 15 15 14 14 14 14 14 14 14 14 14 13 13 13 13 12 10 7 6
14 14 14 14 15 15 15 14 14 15 16 17 17 16 12 9 8 8 7 6 6 6 6 6 5 5 4 4 2 2 2 4 5 5 5 4 3 2 2 2 3 4 3 2 1 1 1 2 2 2 3 5 5 6 7 11 12 13 15 16 16 16 16 16 15 15 15 15 15 14 14 14 14 14 14 14 14 14 14 14 13 11 9 7 5 4
10 11 12 13 13 13 13 12 12 13 16 17 18 16 12 9 8 7 6 6 6 7 7 6 6 5 4 2 2 1 3 4 5 6 6 5 4 2 2 2 3 4 4 3 1 1 2 2 2 2 2 4 5 5 5 6 7 7 8 12 13 14 15 15 15 15 15 15 15 14 14 14 14 14 14 14 14 14 14 14 12 9 5 4 3 3
8 8 9 9 9 9 8 8 8 10 12 15 15 14 11 9 7 6 6 6 7 7 7 7 6 5 4 3 3 3 4 4 6 7 7 6 4 3 3 3 3 3 4 4 3 1 2 2 2 2 1 2 3 4 4 4 4 4 4 6 7 9 13 14 14 14 14 14 14 14 14 14 14 14 14 14 14 14 14 14 13 9 5 4 3 3
6 7 7 7 6 6 6 6 6 6 8 9 10 11 10 9 8 7 6 7 7 7 7 6 6 6 5 5 5 5 3 3 6 9 9 6 4 3 3 3 3 3 3 3 3 3 2 2 2 1 0 1 2 3 4 4 4 4 4 4 4 6 10 12 12 12 11 13 14 14 14 14 14 14 14 14 14 14 14 15 13 10 5 4 4 4
6 6 6 6 5 5 5 5 5 5 6 6 7 8 8 8 8 8 7 7 7 7 7 7 6 6 6 6 6 4 2 2 6 10 11 6 4 3 3 3 4 4 3 2 2 2 2 2 1 1 1 1 1 1 2 3 4 4 4 4 4 4 6 8 8 8 8 9 10 12 13 13 13 13 14 14 14 14 15 15 14 11 7 4 4 4
6 6 6 6 5 5 5 5 5 6 6 6 7 7 7 7 8 8 8 7 7 7 7 7 7 6 6 6 5 4 3 3 6 10 11 7 4 3 3 4 4 4 4 3 2 1 1 1 1 0 0 1 0 0 1 2 2 3 3 4 4 4 4 5 5 5 5 5 5 5 7 7 9 11 11 12 13 14 14 14 14 13 11 6 4 4
6 6 6 6 6 5 5 5 6 6 6 6 7 7 7 7 7 7 7 7 7 6 6 6 7 7 6 6 6 5 4 4 6 10 11 8 5 4 4 5 5 5 5 4 3 2 1 1 1 1 1 1 0 0 0 0 1 1 1 2 3 4 4 4 4 5 5 4 3 2 2 2 3 4 6 8 10 12 13 14 14 14 13 9 7 5
6 6 6 6 6 6 6 6 6 6 7 6 6 6 6 6 6 6 6 6 6 6 6 6 6 6 6 6 6 6 5 5 7 10 11 8 6 4 4 5 5 6 6 5 4 3 2 1 1 1 2 2 1 1 1 0 1 1 1 1 2 3 3 4 4 5 5 4 4 3 2 2 2 2 3 6 8 10 11 12 13 13 12 11 9 7
6 6 6 6 6 6 6 6 6 6 6 6 5 5 5 5 5 5 6 6 6 6 6 6 5 5 5 4 4 4 4 5 7 9 10 8 6 5 4 4 5 6 6 6 5 4 3 2 2 1 1 1 2 2 1 1 2 1 1 1 1 2 2 3 4 4 5 5 5 4 4 3 3 3 3 5 7 8 9 10 10 10 11 11 10 10
6 6 6 6 6 6 6 5 5 5 5 5 5 5 5 4 4 5 5 5 6 6 6 5 5 4 4 2 2 3 3 6 8 10 11 8 7 5 4 4 5 6 6 6 5 5 5 4 3 2 2 1 1 1 2 3 4 3 3 2 1 1 1 2 2 3 4 5 5 5 5 4 3 3 2 3 2 3 3 4 4 5 6 7 8 9
7 6 6 6 6 5 5 5 5 5 5 5 5 4 4 3 3 3 3 4 4 5 5 5 4 3 3 3 3 3 4 7 9 10 11 9 7 5 4 4 5 5 5 5 5 5 5 5 5 4 3 2 1 1 1 3 4 4 3 2 1 0 1 1 2 3 4 4 5 5 4 3 3 2 2 2 2 2 2 1 1 1 2 1 3 6
7 6 6 6 5 5 5 5 4 4 4 4 4 4 4 3 2 2 2 2 3 3 3 3 3 3 3 3 2 3 4 5 7 8 9 8 7 6 5 5 5 5 5 4 4 5 5 5 5 4 4 3 2 2 2 2 4 5 5 3 2 2 2 2 2 2 3 4 4 5 4 3 2 3 3 3 3 3 3 2 2 2 2 2 1 2
7 6 6 5 5 4 4 4 4 4 4 4 4 4 4 3 3 3 3 2 2 2 2 3 3 2 2 2 2 1 1 3 5 7 7 8 8 7 5 5 4 4 5 4 4 4 5 5 5 4 4 3 3 3 3 3 5 7 8 6 4 3 3 3 3 2 2 3 4 4 5 4 3 3 3 4 3 3 3 3 2 2 2 2 3 3
7 6 5 4 3 3 3 3 4 4 4 4 4 5 5 4 4 4 4 4 3 3 3 3 3 3 2 1 1 1 1 1 3 5 7 8 8 8 6 5 4 4 5 4 4 5 5 5 5 5 4 4 3 3 2 3 5 6 8 6 4 3 3 2 2 2 3 3 3 4 5 4 4 4 4 3 3 2 2 2 3 3 3 3 3 4
7 5 4 3 3 3 3 3 4 4 4 4 5 5 5 5 5 5 5 5 4 4 4 4 4 4 4 3 2 0 1 1 0 2 5 6 8 8 7 6 5 5 5 5 4 5 5 5 5 4 4 4 4 4 4 4 4 5 6 6 5 4 2 2 1 2 2 3 3 3 4 3 3 2 2 2 1 1 1 2 4 5 5 4 4 4
5 4 4 3 3 3 3 3 4 4 4 5 5 5 5 5 5 5 5 5 5 5 4 4 4 4 4 4 3 2 1 1 1 0 2 5 7 7 7 7 6 5 6 5 5 5 4 4 4 3 3 4 4 4 4 5 5 5 5 5 6 5 4 3 3 3 2 2 2 2 2 2 2 2 2 1 0 0 1 2 3 3 4 3 4 4
4 4 4 4 4 4 4 4 4 4 5 5 5 5 5 5 5 5 5 5 5 5 4 4 3 3 4 4 4 3 2 1 1 0 1 3 5 7 6 6 6 5 6 6 6 5 5 5 4 3 3 3 4 4 4 5 5 5 5 5 5 4 2 3 3 4 4 3 2 2 2 2 3 3 2 1 1 1 2 2 3 3 3 3 3 4
4 4 4 4 5 5 6 6 5 5 5 5 5 5 5 5 5 5 5 5 5 5 4 4 4 4 4 4 4 3 3 2 2 1 0 1 2 3 4 4 4 5 5 5 5 5 6 5 5 4 4 3 3 3 4 5 5 5 5 5 4 3 2 2 3 3 4 4 4 3 3 3 3 2 1 1 1 2 2 2 3 3 3 3 3 4
5 5 5 5 5 5 5 5 5 5 5 5 5 5 5 5 5 5 5 5 5 5 5 4 5 5 5 4 4 4 4 3 3 3 2 2 2 2 2 3 3 3 3 3 4 4 4 4 5 6 5 5 4 4 3 4 5 5 5 5 4 4 3 3 2 3 4 4 4 4 4 3 2 2 2 1 1 2 2 2 3 3 3 3 3 4
6 6 6 6 5 5 5 5 6 6 6 5 5 5 5 6 7 6 5 6 5 5 6 5 5 6 6 5 5 5 5 5 4 4 4 3 3 3 3 2 2 2 2 2 2 2 2 3 4 5 6 6 6 5 4 4 4 5 5 5 5 4 4 3 3 3 3 3 4 5 5 4 3 3 2 1 1 2 2 2 2 3 3 3 3 4
6 6 6 6 6 6 6 6 6 6 6 6 6 5 6 7 8 8 6 6 6 6 6 6 6 6 6 6 6 5 6 5 5 4 5 5 4 4 4 3 3 3 2 2 2 2 2 2 1 2 3 4 5 5 5 5 4 4 4 4 4 4 4 3 3 3 3 3 4 4 5 4 4 3 3 2 2 3 2 3 3 3 3 3 3 4
6 6 6 6 6 7 7 7 7 7 7 7 6 6 6 6 7 7 7 6 6 6 7 7 7 7 7 6 6 6 6 5 5 5 5 5 5 5 5 5 4 4 3 3 2 2 2 1 1 1 2 3 4 4 5 5 4 4 3 4 4 4 4 3 3 4 4 3 4 4 4 3 3 3 3 3 3 3 3 3 3 3 3 2 3 3
6 6 6 6 7 7 7 7 7 7 7 7 7 7 6 6 7 7 7 7 7 7 7 7 7 7 7 7 6 6 7 6 5 6 6 6 6 6 6 6 6 5 5 4 3 3 3 2 1 2 3 4 5 5 4 5 5 5 4 4 4 3 4 3 3 3 4 4 4 3 3 3 3 3 3 3 3 3 3 3 3 3 3 2 2 3
Wind_Direction
138 150 156 162 167 174 188 189 189 188 188 187 188 190 194 199 203 204 201 200 203 209 217 225 232 234 233 223 214 204 193 184 179 177 177 177 177 177 177 178 179 181 183 185 186 187 189 190 191 193 194 196 198 200 202 204 205 207 208 209 210 211 211 211 210 209 208 208 209 209 209 209 209 209 208 209 209 210 211 215 220 227 233 240 244 247
34 96 141 161 167 173 184 188 190 190 188 186 185 186 188 194 197 200 199 200 202 205 210 216 221 226 230 229 219 209 200 190 184 182 180 180 179 179 179 180 182 184 186 187 189 190 191 191 193 194 196 198 200 201 203 205 206 208 209 210 211 212 212 211 210 209 209 209 209 210 210 210 210 209 208 208 209 211 213 218 224 230 236 242 245 248
132 125 140 161 169 174 176 185 191 193 188 185 182 183 185 190 193 195 195 197 199 201 205 205 207 211 217 222 216 209 203 194 188 184 182 181 181 181 181 183 184 186 188 189 190 192 192 193 194 196 198 200 201 203 204 206 207 209 210 212 212 213 213 212 212 211 210 210 210 210 210 210 209 208 208 208 210 213 217 223 229 235 240 244 247 249
163 155 151 157 175 183 174 175 184 192 189 181 176 178 182 190 194 196 193 193 194 196 200 198 198 201 207 213 214 211 204 196 190 185 183 183 183 183 184 185 187 188 190 191 192 193 194 195 196 198 199 201 203 205 206 207 209 211 212 214 214 215 214 214 213 213 212 212 211 210 209 207 207 206 207 209 213 217 223 228 234 239 244 247 250 251
186 165 146 148 168 185 174 151 160 171 175 168 169 175 183 194 197 196 190 190 191 194 196 193 193 195 200 206 212 211 205 199 193 188 185 185 185 186 187 188 190 191 192 194 195 195 196 197 198 199 201 203 204 206 207 209 211 212 214 216 216 216 216 215 215 215 215 213 210 208 205 203 203 205 208 211 216 222 228 234 239 243 247 249 251 252
195 156 126 141 153 160 145 133 141 149 151 155 165 176 188 196 196 192 187 190 192 193 192 189 190 194 199 203 210 212 208 202 197 192 189 189 189 189 190 192 193 194 195 196 197 198 198 199 200 201 202 204 205 207 208 210 211 213 215 217 218 218 217 216 215 215 215 211 207 204 200 200 202 205 210 215 221 227 233 238 242 245 248 251 253 254
167 97 86 111 117 112 107 129 146 153 153 155 162 174 185 189 189 188 187 189 189 188 185 182 184 193 205 208 213 214 212 207 202 198 194 193 193 194 195 196 197 198 199 200 200 201 201 201 202 203 204 205 206 208 209 210 211 213 215 217 218 218 217 216 215 214 212 208 204 201 199 200 204 208 213 219 225 231 236 241 243 246 248 251 253 255
145 105 89 112 107 89 82 124 157 166 165 161 163 167 174 179 181 178 173 179 180 179 174 174 181 196 212 217 218 217 216 211 207 203 198 198 198 199 200 201 201 202 203 203 204 204 204 204 205 205 206 206 208 209 209 210 211 212 214 216 217 218 217 215 214 212 209 206 203 202 202 204 207 211 216 221 227 232 237 241 243 246 248 251 253 255
159 157 162 160 154 146 149 155 169 175 174 169 167 169 171 176 176 170 149 171 179 178 173 178 187 200 211 217 221 222 222 217 211 205 200 199 200 202 203 205 206 207 207 208 208 208 207 207 207 207 208 208 209 210 210 210 211 212 212 214 215 216 216 214 213 211 209 207 206 206 207 209 212 215 218 222 226 230 235 238 241 244 247 250 252 255
166 167 172 175 173 169 169 166 166 171 176 173 172 171 171 175 176 177 181 195 198 192 184 188 193 198 203 206 216 224 225 224 220 215 209 207 205 204 207 208 209 210 211 211 211 211 211 210 210 210 210 210 211 211 211 210 210 210 211 212 213 214 214 214 213 212 211 210 210 210 211 213 215 217 219 222 225 228 231 235 239 242 246 249 252 254
170 171 169 172 174 173 160 149 144 149 159 160 162 171 183 181 180 182 189 196 197 197 201 201 200 198 195 195 200 208 216 224 226 223 218 215 212 211 212 212 213 214 215 215 215 214 214 213 213 213 212 212 212 212 211 210 209 209 209 210 211 212 213 213 213 213 213 213 213 213 214 215 216 218 219 221 223 226 228 232 235 239 244 248 251 253
170 171 170 169 168 164 149 110 94 114 138 152 166 186 207 199 191 188 193 194 193 193 197 204 207 205 199 191 186 187 198 211 220 224 224 220 216 214 214 215 216 217 217 218 218 217 217 216 216 215 215 214 213 213 211 210 209 208 208 209 210 211 212 213 213 214 214 214 215 215 216 216 217 218 219 221 223 225 227 230 232 236 240 244 248 251
164 164 167 169 171 172 165 144 132 140 161 177 186 193 197 194 191 193 199 200 196 191 188 193 203 212 213 198 184 179 186 203 212 218 221 224 219 214 209 213 216 217 217 219 220 220 219 218 217 217 216 215 214 213 212 210 209 208 208 208 209 210 211 212 213 214 215 215 216 216 217 217 218 218 220 221 223 225 228 229 232 234 238 241 244 247
164 164 168 175 181 182 178 172 172 177 184 191 195 195 188 174 175 186 201 209 204 187 171 181 193 204 212 211 196 183 179 191 202 215 224 225 219 210 203 209 213 214 211 217 222 223 220 218 218 218 217 216 215 214 212 210 209 207 207 208 209 210 211 212 213 214 215 216 216 217 217 217 218 219 220 222 224 227 229 231 233 235 237 239 241 243
172 172 179 186 188 188 186 185 188 191 192 193 191 183 158 152 164 181 196 204 197 162 140 173 194 207 212 206 195 181 175 184 196 211 223 227 219 206 195 206 213 215 210 215 221 223 220 218 217 217 218 216 214 213 213 211 209 208 208 208 209 209 210 211 212 214 215 216 216 217 217 217 218 219 221 223 226 228 231 233 235 236 238 239 240 241
183 182 189 192 193 192 189 189 191 194 192 186 180 173 164 167 174 183 193 195 182 154 151 178 205 224 227 200 181 173 175 187 201 213 221 227 217 198 182 200 212 218 215 217 219 220 219 219 218 217 218 217 215 214 213 212 211 209 209 208 208 209 210 211 212 213 215 216 217 217 217 218 219 220 222 225 227 230 232 234 236 237 238 239 240 240
197 195 197 197 198 197 190 191 192 192 185 180 179 180 180 179 179 181 188 184 176 171 185 187 197 214 230 208 186 179 177 188 201 215 223 229 218 192 173 194 210 219 219 220 219 217 213 217 218 219 219 219 217 216 214 213 212 211 210 209 209 209 209 211 212 213 215 216 217 217 218 219 220 222 224 226 229 231 233 235 236 237 238 238 239 239
207 204 203 204 203 198 187 189 191 190 181 181 182 185 187 182 178 176 182 181 182 187 196 198 202 204 205 202 192 183 178 186 197 212 225 232 220 187 165 191 211 222 224 224 222 217 212 214 214 215 218 219 219 217 216 214 213 212 211 210 209 209 209 211 212 214 215 216 217 218 219 220 221 223 225 227 229 231 233 235 236 237 238 238 238 238
214 210 208 209 208 201 190 190 190 189 186 185 183 182 185 182 178 176 184 186 189 191 193 200 207 212 210 208 190 174 174 181 190 203 219 231 222 185 153 188 212 225 231 229 224 218 212 215 216 217 217 219 219 219 218 216 214 213 211 210 209 209 210 211 212 214 215 216 218 219 219 221 222 224 226 227 229 231 232 234 235 236 236 236 237 238
220 217 213 211 209 206 203 199 194 191 190 185 180 177 181 179 178 180 188 192 196 198 194 199 207 213 214 211 193 171 171 174 183 198 215 227 221 189 155 185 207 222 233 233 225 214 206 210 216 219 219 219 219 219 218 217 215 213 212 210 210 209 210 211 212 214 216 217 218 219 220 221 222 224 225 227 228 230 231 233 234 235 235 235 236 238
226 224 218 209 207 210 213 205 198 193 190 181 176 176 181 179 182 185 188 191 197 201 201 206 211 212 211 197 179 170 173 171 177 190 207 220 220 198 162 182 201 218 231 234 226 208 195 201 208 216 220 219 218 218 218 217 215 213 211 210 210 210 210 211 213 215 216 218 219 220 221 222 222 223 224 225 226 228 230 232 233 233 234 235 236 238
229 229 221 213 211 214 216 206 197 191 186 179 178 181 185 184 187 190 189 190 195 201 204 209 210 208 199 174 162 167 178 176 177 178 181 210 220 210 161 177 195 215 231 233 223 196 183 193 203 214 220 219 218 217 217 216 215 213 211 210 209 209 210 212 214 216 218 219 220 221 221 221 222 222 222 223 225 227 229 231 232 233 233 234 236 238
230 231 227 218 216 216 214 201 190 185 184 184 187 190 188 188 190 192 190 192 197 201 206 207 201 167 118 114 133 162 183 184 177 168 164 202 218 209 155 171 191 212 230 229 213 179 175 192 202 212 218 218 217 216 215 214 213 212 210 209 209 209 210 212 215 217 219 220 221 221 221 221 220 220 221 222 224 226 228 230 231 232 233 235 237 239
229 231 229 223 218 215 210 197 186 182 183 187 191 193 190 190 192 194 193 196 198 200 198 177 136 98 91 104 124 157 188 190 179 166 166 199 214 203 154 172 193 212 228 222 193 162 170 193 202 208 215 217 216 215 214 213 212 211 210 209 209 210 211 213 215 217 218 219 220 220 220 219 219 219 220 221 223 225 228 229 231 232 233 235 237 239
226 226 226 220 214 210 206 199 190 185 183 186 187 188 184 181 180 178 173 181 182 176 156 156 175 193 191 174 168 177 194 195 183 171 169 193 208 206 174 182 195 208 222 210 166 149 167 192 203 208 212 218 217 215 214 212 211 210 209 209 209 210 211 213 214 216 217 217 218 218 217 217 217 218 219 221 223 226 227 229 230 231 233 235 236 238
227 224 220 217 214 211 208 204 199 193 188 185 184 181 174 166 158 151 144 162 168 168 164 181 200 209 201 194 196 199 195 199 195 187 175 183 197 207 201 193 197 203 211 187 144 149 171 193 203 207 208 218 218 216 214 212 210 209 208 208 209 209 210 212 213 214 214 214 214 214 214 215 216 218 220 222 224 226 227 229 230 231 233 234 235 237
237 230 224 220 217 214 211 208 204 200 194 190 186 180 169 159 157 165 182 184 180 178 182 196 207 214 209 210 210 203 180 190 198 199 184 180 192 207 201 191 192 194 193 172 150 166 184 198 204 206 206 214 220 219 214 212 210 208 207 207 207 208 209 210 210 211 211 211 211 211 212 213 215 218 220 223 225 226 228 229 230 231 232 233 234 235
245 239 231 225 220 217 214 212 209 205 201 195 189 182 173 167 173 186 198 189 182 183 194 200 205 210 211 215 210 193 167 189 195 194 183 180 198 212 191 178 177 177 166 140 93 184 206 216 215 210 208 208 214 217 216 212 210 208 207 207 207 207 207 207 207 208 208 208 208 209 211 213 216 218 221 223 225 226 228 229 230 231 232 231 228 227
251 247 242 234 227 222 217 215 213 210 206 201 194 187 180 179 186 194 197 181 178 186 201 204 206 208 210 210 198 174 182 200 193 182 170 183 207 217 158 163 167 164 146 109 58 16 287 251 234 220 215 206 206 211 217 213 210 208 206 206 206 206 205 205 205 205 205 206 207 209 211 214 216 219 221 223 225 226 228 229 230 230 228 226 221 215
249 248 246 240 234 228 221 216 214 212 210 205 199 193 189 190 193 195 189 177 180 189 200 204 207 207 202 186 178 201 225 209 188 172 166 187 204 206 139 158 168 165 149 125 95 358 278 256 238 225 220 206 203 204 210 210 208 205 204 204 204 204 203 202 202 202 203 204 206 209 211 214 217 219 221 223 225 226 227 228 227 225 219 213 205 196
240 241 242 239 235 229 222 216 213 212 213 209 204 199 196 196 198 196 187 183 185 191 196 200 203 203 195 183 192 212 225 200 178 169 168 189 200 192 147 164 173 173 166 151 152 185 251 256 249 234 220 212 206 203 202 203 201 196 191 195 199 200 199 198 198 199 201 204 206 209 211 214 216 219 221 223 224 225 226 226 225 222 212 201 196 194
236 237 238 235 231 225 220 214 210 210 212 212 209 205 201 199 198 197 193 191 190 192 195 198 201 201 200 200 207 213 215 180 169 169 171 186 195 184 156 163 170 177 185 165 158 166 196 230 248 263 298 232 215 205 199 197 193 186 179 179 185 192 194 193 194 195 198 203 206 208 211 213 216 219 221 223 224 225 225 225 224 221 209 197 196 203
234 236 237 234 228 220 214 209 205 206 209 212 212 210 205 201 199 199 199 196 193 192 194 196 199 201 204 212 218 221 213 179 170 171 173 179 182 172 162 163 167 172 183 174 154 149 169 195 218 258 304 278 238 203 194 193 189 183 176 175 177 183 188 185 185 185 188 195 201 206 210 213 216 219 221 222 223 224 224 224 224 222 212 195 192 199
232 233 234 232 227 221 213 207 205 206 208 211 212 212 208 203 200 199 200 199 197 195 194 195 196 198 201 210 218 224 219 202 179 174 173 178 178 170 164 171 171 170 173 181 175 150 138 176 185 196 309 319 318 185 174 189 189 184 177 176 174 174 178 171 167 167 171 175 184 196 204 211 217 220 222 223 223 223 224 224 225 224 220 201 183 180
229 230 230 229 226 223 216 210 208 209 210 213 214 213 210 205 201 199 199 200 199 199 198 198 197 196 197 201 209 214 210 201 183 177 175 180 179 170 167 181 179 174 174 182 183 182 190 197 178 155 116 98 91 259 199 184 172 173 178 179 174 169 167 159 155 153 154 154 156 162 171 185 209 220 223 224 223 223 224 225 226 226 225 213 199 181
227 228 227 225 225 223 220 215 212 211 213 214 214 214 212 208 204 200 198 198 199 201 201 202 201 200 197 199 201 203 196 183 179 179 179 181 179 174 174 184 182 177 177 182 185 186 181 167 144 123 110 123 154 201 230 61 73 90 145 181 175 165 159 154 152 151 150 155 161 166 165 164 175 198 217 223 224 225 225 226 227 228 229 225 219 210
226 227 225 223 222 222 221 217 214 213 213 214 214 214 213 211 207 201 197 196 197 199 201 204 206 205 202 198 198 194 180 168 172 178 180 181 180 180 180 179 178 179 183 183 185 186 179 160 137 117 115 147 169 181 178 134 124 136 172 174 165 153 149 149 150 151 152 163 171 176 178 178 183 194 210 222 225 227 228 229 230 233 235 236 236 235
225 226 225 222 220 219 219 218 215 213 212 210 210 209 208 207 203 198 193 192 192 194 196 199 202 201 196 178 170 168 156 160 168 175 178 179 182 183 181 170 175 183 189 185 182 181 182 178 175 179 202 206 202 187 166 158 165 175 181 166 138 121 132 143 153 156 158 167 174 179 181 180 181 188 203 213 216 222 230 241 247 247 245 248 250 251
222 224 223 220 218 217 217 217 214 211 207 205 201 196 190 186 182 178 175 178 182 184 186 186 185 180 166 145 141 148 153 163 170 174 175 178 181 184 181 172 176 184 190 186 181 179 186 192 194 193 190 190 198 201 178 171 173 174 167 148 136 153 182 157 162 166 165 167 174 180 181 174 171 174 182 178 174 178 200 231 250 250 234 254 265 266
219 221 221 219 217 214 214 213 209 202 196 192 185 176 167 159 149 138 132 137 143 149 151 153 150 140 123 112 119 142 161 169 173 175 175 178 181 184 184 179 177 177 180 183 183 185 190 200 204 200 185 169 160 161 166 179 177 170 161 162 180 202 199 177 174 176 169 168 172 176 175 166 163 169 177 174 176 179 185 192 199 196 172 163 187 251
216 219 219 218 215 213 214 207 198 187 181 175 172 170 169 160 151 143 134 126 124 125 123 126 124 117 100 80 73 83 153 176 178 178 178 179 181 184 186 182 175 169 171 179 187 193 197 203 204 197 179 159 145 145 158 177 178 175 174 180 184 182 165 160 160 164 168 170 172 173 171 166 168 176 183 186 189 189 182 174 176 182 175 165 169 179
216 217 215 210 208 207 203 189 180 174 171 170 175 181 182 175 169 165 160 157 154 149 143 146 149 152 152 130 70 47 35 182 188 185 181 181 182 184 187 185 176 167 165 175 187 199 204 205 202 194 180 165 152 146 155 174 180 182 185 182 166 139 117 143 146 145 162 170 172 172 171 167 171 180 185 191 198 201 187 178 183 191 192 184 181 183
214 212 204 199 195 189 177 171 171 173 173 179 185 187 186 179 175 173 171 171 171 168 165 166 167 170 176 181 177 114 25 3 241 199 190 185 185 186 188 186 179 170 166 173 185 198 206 207 203 194 179 170 164 158 154 165 178 187 191 176 160 149 160 185 172 148 154 164 166 165 166 163 164 166 168 172 176 181 194 212 217 217 211 196 193 199
207 201 192 188 184 179 174 179 181 182 182 187 189 189 185 180 177 175 175 176 174 171 168 168 168 172 183 191 188 178 110 25 6 277 208 196 193 191 190 186 181 176 173 177 182 188 194 204 202 189 168 168 168 165 159 164 174 183 189 179 177 177 184 174 159 150 149 159 164 165 164 148 131 116 109 112 122 172 196 208 221 227 222 201 193 198
194 189 186 186 184 186 191 193 190 188 188 191 190 187 183 180 179 178 178 176 173 171 168 163 164 176 198 201 194 181 157 116 69 23 272 211 203 199 194 187 183 181 183 186 185 183 183 192 189 175 154 164 170 171 166 166 170 177 182 183 184 180 159 139 141 148 155 162 170 173 160 133 115 106 103 130 205 218 210 205 212 221 226 207 196 198
191 188 189 188 191 194 197 194 191 189 191 192 191 187 181 179 179 180 180 177 175 173 171 169 176 189 203 202 196 186 175 161 152 149 173 206 203 199 195 189 185 184 187 191 189 186 185 184 174 161 153 166 178 181 174 166 167 171 176 180 178 165 123 121 136 153 158 162 164 162 147 127 118 120 149 193 227 240 236 217 214 216 219 210 204 203
191 189 189 190 193 195 196 191 190 190 192 192 190 186 180 177 178 180 182 181 178 175 173 177 189 200 207 203 200 196 190 181 175 172 172 178 178 176 176 178 177 177 178 182 183 184 185 176 166 161 162 171 182 188 182 168 165 168 172 174 172 167 159 161 165 166 163 160 157 151 142 131 130 145 179 200 238 261 264 245 229 220 215 210 208 209
189 188 188 189 191 194 194 191 191 192 193 190 188 184 181 178 179 180 182 184 184 182 180 186 196 206 211 210 208 205 198 191 185 179 175 175 171 162 151 144 141 143 148 148 147 147 145 149 157 165 170 174 178 181 178 172 169 169 168 170 172 176 183 181 175 167 164 162 156 152 148 151 160 173 182 199 238 260 264 260 250 237 223 212 208 209
188 188 188 187 190 193 193 191 191 192 192 188 185 183 182 181 182 182 181 184 187 188 188 192 197 202 208 210 211 208 203 197 188 180 176 172 168 161 153 145 135 125 113 101 87 74 68 79 115 165 181 180 177 174 171 172 170 168 165 170 176 183 190 186 174 165 166 170 166 162 164 171 174 173 173 196 227 245 252 259 258 250 235 218 209 209
188 188 187 187 189 192 193 191 191 191 191 187 184 182 180 182 184 185 183 184 188 192 194 194 196 199 204 205 205 205 203 197 189 182 178 171 165 161 160 156 150 143 134 119 105 94 84 68 22 309 258 217 190 174 166 167 166 165 170 178 183 186 191 187 178 171 172 177 175 172 175 183 179 174 174 200 224 240 249 253 255 252 244 227 216 215
188 188 188 189 191 192 192 191 191 191 190 187 183 181 179 181 183 185 185 186 189 193 196 195 196 198 201 201 201 201 200 195 189 184 178 169 164 162 164 162 160 157 155 153 153 154 154 164 194 249 258 234 212 190 167 164 163 168 182 189 190 188 190 185 178 174 177 179 176 173 177 187 189 188 189 203 221 238 249 248 248 248 245 233 224 224